Location: Alafon
(8.4500°N, 4.2333°E)
Time: 07:44:31
(UTC+00:00)

Vanguard 2 - Pass Details

Date: 07 August 2021
Orbit: 553 x 2937 km, 32.9° (Epoch: 24 September)

Event Time Altitude Azimuth Distance (km) Brightness Sun altitude
Rises 12:31:44 0° 261° (W) 4,977 11.8 76.9°
Reaches altitude 10° 12:36:05 10° 245° (WSW) 4,396 11.6 76.1°
Maximum altitude 12:44:23 20° 204° (SSW) 4,283 11.6 74.4°
Drops below altitude 10° 12:54:45 10° 164° (SSE) 5,578 11.9 72.1°
Sets 13:01:37 0° 149° (SSE) 6,764 12.2 70.6°
